PLEIADES 1A

Last updated on Mon Jun 22 2026 00:02:51 GMT+0000 (Coordinated Universal Time)

1 38012U 11076F 26172.52813065 .00000394 00000+0 94560-4 0 9990 2 38012 98.1970 247.5734 0001732 94.5513 30.1518 14.58533884772623
UTC large
Height (km)
Speed (km/s)
/
Latitude / Longitude
Inclination (degrees)
Orbital Period (minutes)
Azimuth
Elevation
Range (km)
Doppler Factor

Next 0 passes for location: London (51.5072 / 0.1276)

No passes found over London.
PLEIADES 1A